START_TIME,STEP,MOV.,M6,t_acc.,M7,t_acc.,M19,t_acc.,H36,t_acc.
1979-07-13 18:00:27.420 ,0,1,0.,12.0,0.,12.0,0.,12.0,0.,12.0
1979-07-13 18:00:39.420 ,0,1,0.,12.0,0.,12.0,0.,12.0,0.,12.0
1979-07-13 18:00:51.420 ,3,1,0.,12.0,0.,12.0,0.,12.0,0.,12.0
1979-07-13 18:01:03.420 ,3,1,0.,12.0,0.,12.0,0.,12.0,0.,12.0
1979-07-13 18:01:15.420 ,7,1,0.,12.0,0.,12.0,0.,12.0,0.,12.0
1979-07-13 18:01:27.420 ,7,1,0.,12.0,0.,12.0,0.,12.0,0.,12.0
1979-07-13 18:01:39.420 ,4,1,0.,12.0,0.,12.0,0.,12.0,0.,12.0
1979-07-13 18:01:51.420 ,4,1,0.,12.0,0.,12.0,0.,12.0,0.,12.0
1979-07-13 18:02:03.420 ,0,1,0.,12.0,0.,12.0,0.,12.0,0.,12.0
1979-07-13 18:02:15.420 ,0,1,0.,12.0,0.,12.0,0.,12.0,0.,12.0
1979-07-13 18:02:27.420 ,3,1,,0,,0,,0,,0
1979-07-13 18:02:39.420 ,3,1,0.,12.0,0.,12.0,0.,12.0,0.,12.0
1979-07-13 18:02:51.420 ,7,1,0.,12.0,0.,12.0,0.,12.0,0.,12.0
1979-07-13 18:03:03.420 ,7,1,0.,12.0,0.,12.0,0.,12.0,0.,12.0
1979-07-13 18:03:15.420 ,4,1,0.,12.0,0.,12.0,0.,12.0,0.,12.0
1979-07-13 18:03:27.420 ,4,1,1.,12.0,0.,12.0,0.,12.0,0.,12.0
1979-07-13 18:03:39.420 ,0,1,0.,12.0,0.,12.0,0.,12.0,0.,12.0
1979-07-13 18:03:51.420 ,0,1,1.,12.0,0.,12.0,0.,12.0,0.,12.0
1979-07-13 18:04:03.420 ,3,1,0.,12.0,0.,12.0,0.,12.0,0.,12.0
1979-07-13 18:04:15.420 ,3,1,0.,12.0,0.,12.0,0.,12.0,0.,12.0
1979-07-13 18:04:27.420 ,7,1,0.,12.0,0.,12.0,0.,12.0,1.,12.0
1979-07-13 18:04:39.420 ,7,1,0.,12.0,0.,12.0,0.,12.0,0.,12.0
1979-07-13 18:04:51.420 ,4,1,0.,12.0,0.,12.0,0.,12.0,0.,12.0
1979-07-13 18:05:03.420 ,4,1,0.,12.0,0.,12.0,0.,12.0,0.,12.0
1979-07-13 18:05:15.420 ,0,1,0.,12.0,0.,12.0,0.,12.0,0.,12.0
1979-07-13 18:05:27.420 ,0,1,0.,12.0,0.,12.0,0.,12.0,0.,12.0
1979-07-13 18:05:39.420 ,0,0,0.,12.0,0.,12.0,0.,12.0,0.,12.0
1979-07-13 18:05:51.420 ,0,0,0.,12.0,0.,12.0,0.,12.0,0.,12.0
1979-07-13 18:06:03.420 ,0,0,1.,12.0,0.,12.0,0.,12.0,0.,12.0
1979-07-13 18:06:15.420 ,0,0,0.,12.0,0.,12.0,0.,12.0,0.,12.0
1979-07-13 18:06:27.420 ,5,1,0.,12.0,0.,12.0,0.,12.0,0.,12.0
1979-07-13 18:06:39.420 ,5,1,0.,12.0,0.,12.0,0.,12.0,0.,12.0
1979-07-13 18:06:51.420 ,5,0,0.,12.0,0.,12.0,0.,12.0,0.,12.0
1979-07-13 18:07:03.420 ,5,0,0.,12.0,0.,12.0,0.,12.0,0.,12.0
1979-07-13 18:07:15.420 ,4,1,0.,12.0,0.,12.0,0.,12.0,0.,12.0
1979-07-13 18:07:27.420 ,4,1,0.,12.0,0.,12.0,0.,12.0,0.,12.0
1979-07-13 18:07:39.420 ,4,0,0.,12.0,0.,12.0,0.,12.0,0.,12.0
1979-07-13 18:07:51.420 ,4,0,0.,12.0,0.,12.0,0.,12.0,0.,12.0
1979-07-13 18:08:03.420 ,3,1,0.,12.0,0.,12.0,0.,12.0,0.,12.0
1979-07-13 18:08:15.420 ,3,1,0.,12.0,0.,12.0,0.,12.0,0.,12.0
1979-07-13 18:08:27.420 ,3,0,0.,12.0,0.,12.0,0.,12.0,0.,12.0
1979-07-13 18:08:39.420 ,3,0,1.,12.0,0.,12.0,0.,12.0,0.,12.0
1979-07-13 18:08:51.420 ,2,1,0.,12.0,0.,12.0,0.,12.0,0.,12.0
1979-07-13 18:09:03.420 ,2,1,1.,12.0,0.,12.0,0.,12.0,0.,12.0
1979-07-13 18:09:15.420 ,2,0,0.,12.0,0.,12.0,0.,12.0,0.,12.0
1979-07-13 18:09:27.420 ,2,0,0.,12.0,0.,12.0,0.,12.0,0.,12.0
1979-07-13 18:09:39.420 ,1,1,0.,12.0,0.,12.0,0.,12.0,0.,12.0
1979-07-13 18:09:51.420 ,1,1,0.,12.0,0.,12.0,0.,12.0,0.,12.0
1979-07-13 18:10:03.420 ,1,0,0.,12.0,0.,12.0,0.,12.0,0.,12.0
1979-07-13 18:10:15.420 ,1,0,0.,12.0,0.,12.0,0.,12.0,0.,12.0
1979-07-13 18:10:27.420 ,0,1,0.,12.0,0.,12.0,0.,12.0,0.,12.0
1979-07-13 18:10:39.420 ,0,1,0.,12.0,0.,12.0,0.,12.0,0.,12.0
1979-07-13 18:10:51.420 ,0,0,0.,12.0,0.,12.0,0.,12.0,0.,12.0
1979-07-13 18:11:03.420 ,0,0,0.,12.0,0.,12.0,0.,12.0,0.,12.0
1979-07-13 18:11:15.420 ,0,1,0.,12.0,0.,12.0,0.,12.0,0.,12.0
1979-07-13 18:11:27.420 ,0,1,0.,12.0,0.,12.0,0.,12.0,0.,12.0
1979-07-13 18:11:39.420 ,0,0,0.,12.0,0.,12.0,0.,12.0,0.,12.0
1979-07-13 18:11:51.420 ,0,0,0.,12.0,0.,12.0,0.,12.0,0.,12.0
1979-07-13 18:12:03.420 ,1,1,0.,12.0,0.,12.0,0.,12.0,0.,12.0
1979-07-13 18:12:15.420 ,1,1,0.,12.0,0.,12.0,0.,12.0,0.,12.0
1979-07-13 18:12:27.420 ,1,0,0.,12.0,0.,12.0,0.,12.0,0.,12.0
1979-07-13 18:12:39.420 ,1,0,0.,12.0,0.,12.0,0.,12.0,0.,12.0
1979-07-13 18:12:51.420 ,2,1,0.,12.0,0.,12.0,0.,12.0,0.,12.0
1979-07-13 18:13:03.420 ,2,1,0.,12.0,0.,12.0,0.,12.0,1.,12.0
1979-07-13 18:13:15.420 ,2,0,0.,12.0,0.,12.0,0.,12.0,0.,12.0
1979-07-13 18:13:27.420 ,2,0,0.,12.0,0.,12.0,0.,12.0,0.,12.0
1979-07-13 18:13:39.420 ,3,1,0.,12.0,0.,12.0,0.,12.0,0.,12.0
1979-07-13 18:13:51.420 ,3,1,0.,12.0,0.,12.0,0.,12.0,0.,12.0
1979-07-13 18:14:03.420 ,3,0,0.,12.0,0.,12.0,0.,12.0,1.,12.0
1979-07-13 18:14:15.420 ,3,0,0.,12.0,0.,12.0,0.,12.0,0.,12.0
1979-07-13 18:14:27.420 ,4,1,0.,12.0,0.,12.0,0.,12.0,0.,12.0
1979-07-13 18:14:39.420 ,4,1,0.,12.0,0.,12.0,0.,12.0,0.,12.0
1979-07-13 18:14:51.420 ,4,0,0.,12.0,0.,12.0,0.,12.0,0.,12.0
1979-07-13 18:15:03.420 ,4,0,0.,12.0,0.,12.0,0.,12.0,0.,12.0
1979-07-13 18:15:15.420 ,5,1,0.,12.0,0.,12.0,0.,12.0,0.,12.0
1979-07-13 18:15:27.420 ,5,1,1.,12.0,0.,12.0,0.,12.0,0.,12.0
1979-07-13 18:15:39.420 ,5,0,0.,12.0,0.,12.0,0.,12.0,0.,12.0
1979-07-13 18:15:51.420 ,5,0,0.,12.0,0.,12.0,0.,12.0,0.,12.0
1979-07-13 18:16:03.420 ,6,1,0.,12.0,0.,12.0,0.,12.0,0.,12.0
1979-07-13 18:16:15.420 ,6,1,0.,12.0,0.,12.0,0.,12.0,0.,12.0
1979-07-13 18:16:27.420 ,6,0,0.,12.0,0.,12.0,0.,12.0,0.,12.0
1979-07-13 18:16:39.420 ,6,0,1.,12.0,0.,12.0,0.,12.0,0.,12.0
1979-07-13 18:16:51.420 ,7,1,0.,12.0,0.,12.0,0.,12.0,1.,12.0
1979-07-13 18:17:03.420 ,7,1,0.,12.0,0.,12.0,0.,12.0,0.,12.0
1979-07-13 18:17:15.420 ,7,0,0.,12.0,0.,12.0,0.,12.0,0.,12.0
1979-07-13 18:17:27.420 ,7,0,0.,12.0,0.,12.0,0.,12.0,0.,12.0
1979-07-13 18:17:39.420 ,7,1,0.,12.0,0.,12.0,0.,12.0,0.,12.0
1979-07-13 18:17:51.420 ,7,1,0.,12.0,0.,12.0,0.,12.0,0.,12.0
1979-07-13 18:18:03.420 ,7,0,0.,12.0,0.,12.0,0.,12.0,0.,12.0
1979-07-13 18:18:15.420 ,7,0,0.,12.0,0.,12.0,0.,12.0,0.,12.0
1979-07-13 18:18:27.420 ,6,1,0.,12.0,0.,12.0,0.,12.0,0.,12.0
1979-07-13 18:18:39.420 ,6,1,0.,12.0,0.,12.0,0.,12.0,0.,12.0
1979-07-13 18:18:51.420 ,6,0,0.,12.0,0.,12.0,0.,12.0,0.,12.0
1979-07-13 18:19:03.420 ,6,0,0.,12.0,0.,12.0,0.,12.0,0.,12.0
1979-07-13 18:19:15.420 ,5,1,0.,12.0,0.,12.0,0.,12.0,0.,12.0
1979-07-13 18:19:27.420 ,5,1,0.,12.0,0.,12.0,0.,12.0,0.,12.0
1979-07-13 18:19:39.420 ,5,0,0.,12.0,0.,12.0,0.,12.0,0.,12.0
1979-07-13 18:19:51.420 ,5,0,0.,12.0,0.,12.0,0.,12.0,0.,12.0
1979-07-13 18:20:03.420 ,4,1,0.,12.0,0.,12.0,0.,12.0,0.,12.0
1979-07-13 18:20:15.420 ,4,1,0.,12.0,0.,12.0,0.,12.0,1.,12.0
1979-07-13 18:20:27.420 ,4,0,0.,12.0,0.,12.0,0.,12.0,0.,12.0
1979-07-13 18:20:39.420 ,4,0,0.,12.0,0.,12.0,0.,12.0,0.,12.0
1979-07-13 18:20:51.420 ,3,1,0.,12.0,0.,12.0,0.,12.0,1.,12.0
1979-07-13 18:21:03.420 ,3,1,0.,12.0,0.,12.0,0.,12.0,0.,12.0
1979-07-13 18:21:15.420 ,3,0,0.,12.0,0.,12.0,0.,12.0,1.,12.0
1979-07-13 18:21:27.420 ,3,0,0.,12.0,0.,12.0,0.,12.0,0.,12.0
1979-07-13 18:21:39.420 ,2,1,0.,12.0,0.,12.0,0.,12.0,0.,12.0
1979-07-13 18:21:51.420 ,2,1,0.,12.0,0.,12.0,0.,12.0,0.,12.0
1979-07-13 18:22:03.420 ,2,0,0.,12.0,0.,12.0,0.,12.0,0.,12.0
1979-07-13 18:22:15.420 ,2,0,0.,12.0,0.,12.0,0.,12.0,0.,12.0
1979-07-13 18:23:15.420 ,0,0,0.,12.0,0.,12.0,0.,12.0,0.,12.0
1979-07-13 18:23:27.420 ,0,0,0.,12.0,0.,12.0,0.,12.0,0.,12.0
1979-07-13 18:23:39.420 ,0,0,0.,12.0,0.,12.0,0.,12.0,0.,12.0
1979-07-13 18:23:51.420 ,0,0,0.,12.0,0.,12.0,0.,12.0,0.,12.0
1979-07-13 18:24:03.420 ,0,1,0.,12.0,1.,12.0,0.,12.0,0.,12.0
1979-07-13 18:24:15.420 ,0,1,0.,12.0,0.,12.0,0.,12.0,0.,12.0
1979-07-13 18:24:27.420 ,0,0,0.,12.0,0.,12.0,0.,12.0,0.,12.0
1979-07-13 18:24:39.420 ,0,0,0.,12.0,0.,12.0,0.,12.0,0.,12.0
1979-07-13 18:24:51.420 ,1,1,0.,12.0,0.,12.0,0.,12.0,0.,12.0
1979-07-13 18:25:03.420 ,1,1,0.,12.0,0.,12.0,0.,12.0,0.,12.0
1979-07-13 18:25:15.420 ,1,0,0.,12.0,0.,12.0,0.,12.0,0.,12.0
1979-07-13 18:25:27.420 ,1,0,0.,12.0,0.,12.0,0.,12.0,0.,12.0
1979-07-13 18:25:39.420 ,2,1,0.,12.0,0.,12.0,0.,12.0,0.,12.0
1979-07-13 18:25:51.420 ,2,1,0.,12.0,0.,12.0,0.,12.0,0.,12.0
1979-07-13 18:26:03.420 ,2,0,0.,12.0,0.,12.0,0.,12.0,0.,12.0
1979-07-13 18:26:15.420 ,2,0,0.,12.0,0.,12.0,0.,12.0,0.,12.0
1979-07-13 18:26:27.420 ,3,1,0.,12.0,0.,12.0,0.,12.0,0.,12.0
1979-07-13 18:26:39.420 ,3,1,0.,12.0,0.,12.0,0.,12.0,0.,12.0
1979-07-13 18:26:51.420 ,3,0,0.,12.0,0.,12.0,0.,12.0,0.,12.0
1979-07-13 18:27:03.420 ,3,0,0.,12.0,0.,12.0,0.,12.0,1.,12.0
1979-07-13 18:27:15.420 ,4,1,0.,12.0,0.,12.0,0.,12.0,0.,12.0
1979-07-13 18:27:27.420 ,4,1,0.,12.0,0.,12.0,0.,12.0,0.,12.0
1979-07-13 18:27:39.420 ,4,0,0.,12.0,0.,12.0,0.,12.0,0.,12.0
1979-07-13 18:27:51.420 ,4,0,0.,12.0,0.,12.0,0.,12.0,0.,12.0
1979-07-13 18:28:03.420 ,5,1,0.,12.0,0.,12.0,0.,12.0,0.,12.0
1979-07-13 18:28:15.420 ,5,1,0.,12.0,0.,12.0,0.,12.0,1.,12.0
1979-07-13 18:28:27.420 ,5,0,0.,12.0,0.,12.0,0.,12.0,0.,12.0
1979-07-13 18:28:39.420 ,5,0,0.,12.0,0.,12.0,0.,12.0,0.,12.0
1979-07-13 18:28:51.420 ,6,1,0.,12.0,0.,12.0,0.,12.0,0.,12.0
1979-07-13 18:29:03.420 ,6,1,0.,12.0,0.,12.0,0.,12.0,0.,12.0
1979-07-13 18:29:15.420 ,6,0,0.,12.0,0.,12.0,0.,12.0,0.,12.0
1979-07-13 18:29:27.420 ,6,0,0.,12.0,0.,12.0,0.,12.0,0.,12.0
1979-07-13 18:29:39.420 ,7,1,0.,12.0,0.,12.0,0.,12.0,0.,12.0
1979-07-13 18:29:51.420 ,7,1,0.,12.0,0.,12.0,0.,12.0,0.,12.0
1979-07-13 18:30:03.420 ,7,0,0.,12.0,0.,12.0,0.,12.0,0.,12.0
1979-07-13 18:30:15.420 ,7,0,0.,12.0,0.,12.0,0.,12.0,0.,12.0
1979-07-13 18:30:27.420 ,7,1,0.,12.0,0.,12.0,0.,12.0,0.,12.0
1979-07-13 18:30:39.420 ,7,1,0.,12.0,0.,12.0,0.,12.0,0.,12.0
1979-07-13 18:30:51.420 ,7,0,0.,12.0,0.,12.0,0.,12.0,0.,12.0
1979-07-13 18:31:03.420 ,7,0,0.,12.0,0.,12.0,0.,12.0,0.,12.0
1979-07-13 18:31:15.420 ,6,1,0.,12.0,0.,12.0,0.,12.0,0.,12.0
1979-07-13 18:31:27.420 ,6,1,0.,12.0,0.,12.0,0.,12.0,0.,12.0
1979-07-13 18:31:39.420 ,6,0,0.,12.0,0.,12.0,0.,12.0,0.,12.0
1979-07-13 18:31:51.420 ,6,0,0.,12.0,0.,12.0,0.,12.0,0.,12.0
1979-07-13 18:32:03.420 ,5,1,0.,12.0,0.,12.0,0.,12.0,0.,12.0
1979-07-13 18:32:15.420 ,5,1,0.,12.0,0.,12.0,0.,12.0,0.,12.0
1979-07-13 18:32:27.420 ,5,0,0.,12.0,0.,12.0,0.,12.0,0.,12.0
1979-07-13 18:32:39.420 ,5,0,0.,12.0,0.,12.0,0.,12.0,0.,12.0
1979-07-13 18:32:51.420 ,4,1,0.,12.0,0.,12.0,0.,12.0,0.,12.0
1979-07-13 18:33:03.420 ,4,1,0.,12.0,0.,12.0,0.,12.0,0.,12.0
1979-07-13 18:33:15.420 ,4,0,,0,,0,,0,,0
1979-07-13 18:33:27.420 ,4,0,0.,12.0,0.,12.0,0.,12.0,0.,12.0
1979-07-13 18:33:39.420 ,3,1,0.,12.0,0.,12.0,0.,12.0,0.,12.0
1979-07-13 18:33:51.420 ,3,1,0.,12.0,0.,12.0,0.,12.0,0.,12.0
1979-07-13 18:34:03.420 ,3,0,0.,12.0,0.,12.0,0.,12.0,0.,12.0
1979-07-13 18:34:15.420 ,3,0,0.,12.0,0.,12.0,0.,12.0,0.,12.0
1979-07-13 18:34:27.420 ,2,1,0.,12.0,0.,12.0,0.,12.0,0.,12.0
1979-07-13 18:34:39.420 ,2,1,0.,12.0,0.,12.0,0.,12.0,0.,12.0
1979-07-13 18:34:51.420 ,2,0,0.,12.0,0.,12.0,0.,12.0,0.,12.0
1979-07-13 18:35:03.420 ,2,0,0.,12.0,0.,12.0,0.,12.0,0.,12.0
1979-07-13 18:35:15.420 ,1,1,0.,12.0,0.,12.0,0.,12.0,0.,12.0
1979-07-13 18:35:27.420 ,1,1,0.,12.0,0.,12.0,0.,12.0,0.,12.0
1979-07-13 18:35:39.420 ,1,0,0.,12.0,0.,12.0,0.,12.0,0.,12.0
1979-07-13 18:35:51.420 ,1,0,0.,12.0,0.,12.0,0.,12.0,0.,12.0
1979-07-13 18:36:03.420 ,0,1,0.,12.0,0.,12.0,0.,12.0,0.,12.0
1979-07-13 18:36:15.420 ,0,1,0.,12.0,0.,12.0,0.,12.0,0.,12.0
1979-07-13 18:36:27.420 ,0,0,0.,12.0,0.,12.0,0.,12.0,0.,12.0
1979-07-13 18:36:39.420 ,0,0,0.,12.0,0.,12.0,0.,12.0,0.,12.0
1979-07-13 18:36:51.420 ,0,1,0.,12.0,0.,12.0,0.,12.0,0.,12.0
1979-07-13 18:37:03.420 ,0,1,0.,12.0,0.,12.0,0.,12.0,0.,12.0
1979-07-13 18:37:15.420 ,0,0,0.,12.0,0.,12.0,0.,12.0,0.,12.0
1979-07-13 18:37:27.420 ,0,0,0.,12.0,0.,12.0,0.,12.0,0.,12.0
1979-07-13 18:37:39.420 ,1,1,0.,12.0,0.,12.0,0.,12.0,0.,12.0
1979-07-13 18:37:51.420 ,1,1,0.,12.0,0.,12.0,0.,12.0,0.,12.0
1979-07-13 18:38:03.420 ,1,0,0.,12.0,0.,12.0,0.,12.0,0.,12.0
1979-07-13 18:38:15.420 ,1,0,0.,12.0,0.,12.0,0.,12.0,0.,12.0
1979-07-13 18:38:27.420 ,2,1,0.,12.0,0.,12.0,0.,12.0,0.,12.0
1979-07-13 18:38:39.420 ,2,1,0.,12.0,0.,12.0,0.,12.0,0.,12.0
1979-07-13 18:38:51.420 ,2,0,0.,12.0,0.,12.0,0.,12.0,0.,12.0
1979-07-13 18:39:03.420 ,2,0,0.,12.0,0.,12.0,0.,12.0,0.,12.0
1979-07-13 18:39:15.420 ,3,1,0.,12.0,0.,12.0,0.,12.0,0.,12.0
1979-07-13 18:39:27.420 ,3,1,0.,12.0,0.,12.0,0.,12.0,0.,12.0
1979-07-13 18:39:39.420 ,3,0,0.,12.0,0.,12.0,0.,12.0,0.,12.0
1979-07-13 18:39:51.420 ,3,0,0.,12.0,0.,12.0,0.,12.0,0.,12.0
1979-07-13 18:40:03.420 ,4,1,0.,12.0,0.,12.0,0.,12.0,0.,12.0
1979-07-13 18:40:15.420 ,4,1,0.,12.0,0.,12.0,0.,12.0,0.,12.0
1979-07-13 18:40:27.420 ,4,0,0.,12.0,0.,12.0,0.,12.0,0.,12.0
1979-07-13 18:40:39.420 ,4,0,0.,12.0,0.,12.0,0.,12.0,0.,12.0
1979-07-13 18:40:51.420 ,5,1,0.,12.0,0.,12.0,0.,12.0,0.,12.0
1979-07-13 18:41:03.420 ,5,1,0.,12.0,0.,12.0,0.,12.0,0.,12.0
1979-07-13 18:41:15.420 ,5,0,0.,12.0,0.,12.0,0.,12.0,0.,12.0
1979-07-13 18:41:27.420 ,5,0,0.,12.0,0.,12.0,0.,12.0,0.,12.0
1979-07-13 18:41:39.420 ,6,1,0.,12.0,0.,12.0,0.,12.0,0.,12.0
1979-07-13 18:41:51.420 ,6,1,0.,12.0,0.,12.0,0.,12.0,0.,12.0
1979-07-13 18:42:03.420 ,6,0,0.,12.0,0.,12.0,0.,12.0,0.,12.0
1979-07-13 18:42:15.420 ,6,0,0.,12.0,0.,12.0,0.,12.0,0.,12.0
1979-07-13 18:42:27.420 ,7,0,0.,12.0,0.,12.0,0.,12.0,0.,12.0
1979-07-13 18:42:39.420 ,7,0,0.,12.0,0.,12.0,0.,12.0,0.,12.0
1979-07-13 18:42:51.420 ,7,0,0.,12.0,0.,12.0,0.,12.0,0.,12.0
1979-07-13 18:43:03.420 ,7,0,0.,12.0,0.,12.0,0.,12.0,0.,12.0
1979-07-13 18:43:15.420 ,4,1,0.,12.0,0.,12.0,0.,12.0,0.,12.0
1979-07-13 18:43:27.420 ,4,1,0.,12.0,0.,12.0,0.,12.0,0.,12.0
1979-07-13 18:43:39.420 ,0,1,0.,12.0,0.,12.0,0.,12.0,0.,12.0
1979-07-13 18:43:51.420 ,0,1,0.,12.0,0.,12.0,0.,12.0,0.,12.0
1979-07-13 18:44:03.420 ,3,1,0.,12.0,0.,12.0,0.,12.0,0.,12.0
1979-07-13 18:44:15.420 ,3,1,0.,12.0,0.,12.0,0.,12.0,0.,12.0
1979-07-13 18:44:27.420 ,7,1,0.,12.0,0.,12.0,0.,12.0,0.,12.0
1979-07-13 18:44:39.420 ,7,1,0.,12.0,0.,12.0,0.,12.0,0.,12.0
1979-07-13 18:44:51.420 ,4,1,0.,12.0,0.,12.0,0.,12.0,0.,12.0
1979-07-13 18:45:03.420 ,4,1,0.,12.0,0.,12.0,0.,12.0,0.,12.0
1979-07-13 18:45:15.420 ,0,1,0.,12.0,0.,12.0,0.,12.0,0.,12.0
1979-07-13 18:45:27.420 ,0,1,0.,12.0,0.,12.0,0.,12.0,0.,12.0
1979-07-13 18:45:39.420 ,3,1,0.,12.0,0.,12.0,0.,12.0,0.,12.0
1979-07-13 18:45:51.420 ,3,1,0.,12.0,0.,12.0,0.,12.0,0.,12.0
1979-07-13 18:46:03.420 ,7,1,0.,12.0,0.,12.0,0.,12.0,0.,12.0
1979-07-13 18:46:15.420 ,7,1,0.,12.0,0.,12.0,0.,12.0,0.,12.0
1979-07-13 18:46:27.420 ,4,1,0.,12.0,0.,12.0,0.,12.0,0.,12.0
1979-07-13 18:46:39.420 ,4,1,0.,12.0,0.,12.0,0.,12.0,0.,12.0
1979-07-13 18:46:51.420 ,0,1,0.,12.0,0.,12.0,0.,12.0,0.,12.0
1979-07-13 18:47:03.420 ,0,1,0.,12.0,0.,12.0,0.,12.0,0.,12.0
1979-07-13 18:47:15.420 ,3,1,0.,12.0,0.,12.0,0.,12.0,0.,12.0
1979-07-13 18:47:27.420 ,3,1,0.,12.0,0.,12.0,0.,12.0,0.,12.0
1979-07-13 18:47:39.420 ,7,1,0.,12.0,0.,12.0,0.,12.0,0.,12.0
1979-07-13 18:47:51.420 ,7,1,0.,12.0,0.,12.0,0.,12.0,0.,12.0
1979-07-13 18:48:03.420 ,4,1,0.,12.0,0.,12.0,0.,12.0,0.,12.0
1979-07-13 18:48:15.420 ,4,1,0.,12.0,0.,12.0,0.,12.0,0.,12.0
1979-07-13 18:48:27.420 ,0,1,0.,12.0,0.,12.0,0.,12.0,0.,12.0
1979-07-13 18:48:39.420 ,0,1,0.,12.0,0.,12.0,0.,12.0,0.,12.0
1979-07-13 18:48:51.420 ,3,1,0.,12.0,0.,12.0,0.,12.0,0.,12.0
1979-07-13 18:49:03.420 ,3,1,0.,12.0,0.,12.0,0.,12.0,0.,12.0
1979-07-13 18:49:15.420 ,7,1,0.,12.0,0.,12.0,0.,12.0,0.,12.0
1979-07-13 18:49:27.420 ,7,1,0.,12.0,0.,12.0,0.,12.0,0.,12.0
1979-07-13 18:49:39.420 ,0,0,,0,,0,,0,,0
1979-07-13 18:49:51.420 ,0,0,,0,,0,,0,,0
1979-07-13 18:50:03.420 ,0,0,,0,,0,,0,,0
1979-07-13 18:50:15.420 ,0,0,,0,,0,,0,,0
1979-07-13 18:50:03.420 ,0,1,0.,12.0,0.,12.0,0.,12.0,0.,12.0
1979-07-13 18:50:15.420 ,0,1,0.,12.0,0.,12.0,0.,12.0,0.,12.0
1979-07-13 18:50:27.420 ,3,1,0.,12.0,0.,12.0,0.,12.0,0.,12.0
1979-07-13 18:50:39.420 ,3,1,0.,12.0,0.,12.0,0.,12.0,0.,12.0
1979-07-13 18:50:51.420 ,7,1,1.,12.0,0.,12.0,0.,12.0,0.,12.0
1979-07-13 18:51:03.420 ,7,1,0.,12.0,0.,12.0,0.,12.0,0.,12.0
1979-07-13 18:51:15.420 ,4,1,0.,12.0,0.,12.0,0.,12.0,0.,12.0
1979-07-13 18:51:27.420 ,4,1,0.,12.0,0.,12.0,0.,12.0,0.,12.0
1979-07-13 18:51:39.420 ,0,1,0.,12.0,0.,12.0,0.,12.0,0.,12.0
1979-07-13 18:51:51.420 ,0,1,0.,12.0,0.,12.0,0.,12.0,0.,12.0
1979-07-13 18:52:03.420 ,3,1,0.,12.0,0.,12.0,0.,12.0,0.,12.0
1979-07-13 18:52:15.420 ,3,1,0.,12.0,0.,12.0,0.,12.0,0.,12.0
1979-07-13 18:52:27.420 ,7,1,0.,12.0,0.,12.0,0.,12.0,0.,12.0
1979-07-13 18:52:39.420 ,7,1,0.,12.0,0.,12.0,0.,12.0,0.,12.0
1979-07-13 18:52:51.420 ,4,1,0.,12.0,0.,12.0,0.,12.0,0.,12.0
1979-07-13 18:53:03.420 ,4,1,0.,12.0,0.,12.0,0.,12.0,0.,12.0
1979-07-13 18:53:15.420 ,0,1,0.,12.0,0.,12.0,0.,12.0,0.,12.0
1979-07-13 18:53:27.420 ,0,1,0.,12.0,0.,12.0,0.,12.0,0.,12.0
1979-07-13 18:53:39.420 ,0,0,2.,12.0,0.,12.0,0.,12.0,0.,12.0
1979-07-13 18:53:51.420 ,0,0,0.,12.0,0.,12.0,0.,12.0,0.,12.0
1979-07-13 18:54:03.420 ,0,0,0.,12.0,0.,12.0,0.,12.0,0.,12.0
1979-07-13 18:54:15.420 ,0,0,0.,12.0,0.,12.0,0.,12.0,0.,12.0
1979-07-13 18:54:27.420 ,5,1,0.,12.0,0.,12.0,0.,12.0,0.,12.0
1979-07-13 18:54:39.420 ,5,1,1.,12.0,0.,12.0,0.,12.0,0.,12.0
1979-07-13 18:54:51.420 ,5,0,0.,12.0,0.,12.0,0.,12.0,0.,12.0
1979-07-13 18:55:03.420 ,5,0,0.,12.0,0.,12.0,0.,12.0,0.,12.0
1979-07-13 18:55:15.420 ,4,1,0.,12.0,0.,12.0,0.,12.0,0.,12.0
1979-07-13 18:55:27.420 ,4,1,0.,12.0,0.,12.0,0.,12.0,0.,12.0
1979-07-13 18:55:39.420 ,4,0,0.,12.0,0.,12.0,0.,12.0,0.,12.0
1979-07-13 18:55:51.420 ,4,0,0.,12.0,0.,12.0,0.,12.0,0.,12.0
1979-07-13 18:56:03.420 ,3,1,0.,12.0,0.,12.0,0.,12.0,0.,12.0
1979-07-13 18:56:15.420 ,3,1,0.,12.0,0.,12.0,0.,12.0,0.,12.0
1979-07-13 18:56:27.420 ,3,0,0.,12.0,0.,12.0,0.,12.0,0.,12.0
1979-07-13 18:56:39.420 ,3,0,1.,12.0,0.,12.0,0.,12.0,0.,12.0
1979-07-13 18:56:51.420 ,2,1,0.,12.0,0.,12.0,0.,12.0,0.,12.0
1979-07-13 18:57:03.420 ,2,1,0.,12.0,0.,12.0,0.,12.0,0.,12.0
1979-07-13 18:57:15.420 ,2,0,0.,12.0,0.,12.0,0.,12.0,0.,12.0
1979-07-13 18:57:27.420 ,2,0,0.,12.0,0.,12.0,0.,12.0,0.,12.0
1979-07-13 18:57:39.420 ,1,1,0.,12.0,0.,12.0,0.,12.0,0.,12.0
1979-07-13 18:57:51.420 ,1,1,0.,12.0,0.,12.0,0.,12.0,0.,12.0
1979-07-13 18:58:03.420 ,1,0,0.,12.0,0.,12.0,0.,12.0,0.,12.0
1979-07-13 18:58:15.420 ,1,0,0.,12.0,0.,12.0,0.,12.0,0.,12.0
1979-07-13 18:58:27.420 ,0,1,0.,12.0,0.,12.0,0.,12.0,0.,12.0
1979-07-13 18:58:39.420 ,0,1,0.,12.0,0.,12.0,0.,12.0,0.,12.0
1979-07-13 18:58:51.420 ,0,0,0.,12.0,0.,12.0,0.,12.0,0.,12.0
1979-07-13 18:59:03.420 ,0,0,0.,12.0,0.,12.0,0.,12.0,0.,12.0
1979-07-13 18:59:15.420 ,0,1,0.,12.0,0.,12.0,0.,12.0,0.,12.0
1979-07-13 18:59:27.420 ,0,1,0.,12.0,0.,12.0,0.,12.0,0.,12.0
1979-07-13 18:59:39.420 ,0,0,0.,12.0,0.,12.0,0.,12.0,0.,12.0
1979-07-13 18:59:51.420 ,0,0,0.,12.0,0.,12.0,0.,12.0,0.,12.0
1979-07-13 19:00:03.410 ,1,1,0.,12.0,0.,12.0,0.,12.0,0.,12.0
1979-07-13 19:00:15.410 ,1,1,0.,12.0,0.,12.0,0.,12.0,0.,12.0
1979-07-13 19:00:27.420 ,1,0,0.,12.0,0.,12.0,0.,12.0,0.,12.0
1979-07-13 19:00:39.420 ,1,0,0.,12.0,0.,12.0,0.,12.0,0.,12.0
1979-07-13 19:00:51.420 ,2,1,0.,12.0,0.,12.0,0.,12.0,0.,12.0
1979-07-13 19:01:03.420 ,2,1,0.,12.0,0.,12.0,0.,12.0,0.,12.0
1979-07-13 19:01:15.420 ,2,0,1.,12.0,0.,12.0,0.,12.0,0.,12.0
1979-07-13 19:01:27.420 ,2,0,0.,12.0,0.,12.0,0.,12.0,0.,12.0
1979-07-13 19:01:39.420 ,3,1,0.,12.0,0.,12.0,0.,12.0,0.,12.0
1979-07-13 19:01:51.420 ,3,1,0.,12.0,0.,12.0,0.,12.0,0.,12.0
1979-07-13 19:02:03.420 ,3,0,0.,12.0,0.,12.0,0.,12.0,0.,12.0
1979-07-13 19:02:15.420 ,3,0,0.,12.0,0.,12.0,0.,12.0,0.,12.0
1979-07-13 19:02:27.420 ,4,1,0.,12.0,0.,12.0,0.,12.0,0.,12.0
1979-07-13 19:02:39.420 ,4,1,0.,12.0,0.,12.0,0.,12.0,0.,12.0
1979-07-13 19:02:51.420 ,4,0,0.,12.0,0.,12.0,0.,12.0,0.,12.0
1979-07-13 19:03:03.420 ,4,0,0.,12.0,0.,12.0,0.,12.0,0.,12.0
1979-07-13 19:03:15.420 ,5,1,0.,12.0,0.,12.0,0.,12.0,0.,12.0
1979-07-13 19:03:27.420 ,5,1,0.,12.0,0.,12.0,0.,12.0,0.,12.0
1979-07-13 19:03:39.420 ,5,0,0.,12.0,0.,12.0,0.,12.0,0.,12.0
1979-07-13 19:03:51.420 ,5,0,0.,12.0,0.,12.0,0.,12.0,0.,12.0
1979-07-13 19:04:03.420 ,6,1,0.,12.0,0.,12.0,0.,12.0,0.,12.0
1979-07-13 19:04:15.420 ,6,1,0.,12.0,0.,12.0,0.,12.0,0.,12.0
1979-07-13 19:04:27.420 ,6,0,0.,12.0,0.,12.0,0.,12.0,0.,12.0
1979-07-13 19:04:39.420 ,6,0,0.,12.0,0.,12.0,0.,12.0,0.,12.0
1979-07-13 19:04:51.420 ,7,1,0.,12.0,0.,12.0,0.,12.0,0.,12.0
1979-07-13 19:05:03.420 ,7,1,0.,12.0,0.,12.0,0.,12.0,0.,12.0
1979-07-13 19:05:15.420 ,7,0,0.,12.0,0.,12.0,0.,12.0,0.,12.0
1979-07-13 19:05:27.420 ,7,0,0.,12.0,0.,12.0,0.,12.0,0.,12.0
1979-07-13 19:05:39.410 ,7,1,0.,12.0,0.,12.0,0.,12.0,0.,12.0
1979-07-13 19:05:51.410 ,7,1,0.,12.0,0.,12.0,0.,12.0,0.,12.0
1979-07-13 19:06:03.410 ,7,0,0.,12.0,0.,12.0,0.,12.0,0.,12.0
1979-07-13 19:06:15.410 ,7,0,0.,12.0,0.,12.0,0.,12.0,0.,12.0
1979-07-13 19:06:27.410 ,6,1,0.,12.0,0.,12.0,0.,12.0,0.,12.0
1979-07-13 19:06:39.410 ,6,1,0.,12.0,0.,12.0,0.,12.0,0.,12.0
1979-07-13 19:06:51.410 ,6,0,0.,12.0,0.,12.0,0.,12.0,0.,12.0
1979-07-13 19:07:03.410 ,6,0,0.,12.0,0.,12.0,0.,12.0,0.,12.0
1979-07-13 19:07:15.410 ,5,1,0.,12.0,0.,12.0,0.,12.0,0.,12.0
1979-07-13 19:07:27.410 ,5,1,0.,12.0,0.,12.0,0.,12.0,0.,12.0
1979-07-13 19:07:39.410 ,5,0,0.,12.0,0.,12.0,0.,12.0,0.,12.0
1979-07-13 19:07:51.410 ,5,0,0.,12.0,0.,12.0,0.,12.0,0.,12.0
1979-07-13 19:08:03.410 ,4,1,0.,12.0,0.,12.0,0.,12.0,0.,12.0
1979-07-13 19:08:15.410 ,4,1,0.,12.0,0.,12.0,0.,12.0,0.,12.0
1979-07-13 19:08:27.410 ,4,0,0.,12.0,0.,12.0,0.,12.0,0.,12.0
1979-07-13 19:08:39.410 ,4,0,0.,12.0,0.,12.0,0.,12.0,0.,12.0
1979-07-13 19:08:51.410 ,3,1,0.,12.0,0.,12.0,0.,12.0,0.,12.0
1979-07-13 19:09:03.410 ,3,1,0.,12.0,0.,12.0,0.,12.0,0.,12.0
1979-07-13 19:09:15.410 ,3,0,0.,12.0,0.,12.0,0.,12.0,0.,12.0
1979-07-13 19:09:27.410 ,3,0,0.,12.0,0.,12.0,0.,12.0,0.,12.0
1979-07-13 19:09:39.410 ,2,1,0.,12.0,0.,12.0,0.,12.0,0.,12.0
1979-07-13 19:09:51.410 ,2,1,0.,12.0,0.,12.0,0.,12.0,0.,12.0
1979-07-13 19:10:03.410 ,2,0,0.,12.0,0.,12.0,0.,12.0,0.,12.0
1979-07-13 19:10:15.410 ,2,0,0.,12.0,0.,12.0,0.,12.0,0.,12.0
1979-07-13 19:10:27.410 ,1,1,0.,12.0,0.,12.0,0.,12.0,0.,12.0
1979-07-13 19:10:39.410 ,1,1,0.,12.0,0.,12.0,0.,12.0,0.,12.0
1979-07-13 19:10:51.410 ,1,0,0.,12.0,0.,12.0,0.,12.0,0.,12.0
1979-07-13 19:11:03.410 ,1,0,0.,12.0,0.,12.0,0.,12.0,0.,12.0
1979-07-13 19:11:15.410 ,0,1,0.,12.0,0.,12.0,0.,12.0,0.,12.0
1979-07-13 19:11:27.410 ,0,1,0.,12.0,0.,12.0,0.,12.0,0.,12.0
1979-07-13 19:11:39.410 ,0,0,0.,12.0,0.,12.0,0.,12.0,0.,12.0
1979-07-13 19:11:51.410 ,0,0,0.,12.0,0.,12.0,0.,12.0,0.,12.0
1979-07-13 19:12:03.410 ,0,1,0.,12.0,0.,12.0,0.,12.0,0.,12.0
1979-07-13 19:12:15.410 ,0,1,0.,12.0,0.,12.0,0.,12.0,0.,12.0
1979-07-13 19:12:27.410 ,0,0,0.,12.0,0.,12.0,0.,12.0,0.,12.0
1979-07-13 19:12:39.410 ,0,0,0.,12.0,0.,12.0,0.,12.0,0.,12.0
1979-07-13 19:12:51.410 ,1,1,0.,12.0,0.,12.0,0.,12.0,0.,12.0
1979-07-13 19:13:03.410 ,1,1,0.,12.0,0.,12.0,0.,12.0,0.,12.0
1979-07-13 19:13:15.410 ,1,0,0.,12.0,0.,12.0,0.,12.0,0.,12.0
1979-07-13 19:13:27.410 ,1,0,0.,12.0,0.,12.0,0.,12.0,0.,12.0
1979-07-13 19:13:39.410 ,2,1,0.,12.0,0.,12.0,0.,12.0,0.,12.0
1979-07-13 19:13:51.410 ,2,1,0.,12.0,0.,12.0,0.,12.0,1.,12.0
1979-07-13 19:14:03.410 ,2,0,0.,12.0,0.,12.0,0.,12.0,0.,12.0
1979-07-13 19:14:15.410 ,2,0,0.,12.0,0.,12.0,0.,12.0,0.,12.0
1979-07-13 19:14:27.410 ,3,1,0.,12.0,0.,12.0,0.,12.0,0.,12.0
1979-07-13 19:14:39.410 ,3,1,0.,12.0,0.,12.0,0.,12.0,0.,12.0
1979-07-13 19:14:51.410 ,3,0,0.,12.0,0.,12.0,0.,12.0,0.,12.0
1979-07-13 19:15:03.410 ,3,0,0.,12.0,0.,12.0,0.,12.0,0.,12.0
1979-07-13 19:15:15.410 ,4,1,0.,12.0,0.,12.0,0.,12.0,0.,12.0
1979-07-13 19:15:27.410 ,4,1,0.,12.0,0.,12.0,0.,12.0,0.,12.0
1979-07-13 19:15:39.410 ,4,0,0.,12.0,0.,12.0,0.,12.0,0.,12.0
1979-07-13 19:15:51.410 ,4,0,0.,12.0,0.,12.0,0.,12.0,0.,12.0
1979-07-13 19:16:03.410 ,5,1,0.,12.0,0.,12.0,0.,12.0,0.,12.0
1979-07-13 19:16:15.410 ,5,1,0.,12.0,0.,12.0,0.,12.0,0.,12.0
1979-07-13 19:16:27.410 ,5,0,0.,12.0,0.,12.0,0.,12.0,0.,12.0
1979-07-13 19:16:39.410 ,5,0,0.,12.0,0.,12.0,0.,12.0,0.,12.0
1979-07-13 19:16:51.410 ,6,1,0.,12.0,0.,12.0,0.,12.0,0.,12.0
1979-07-13 19:17:03.410 ,6,1,0.,12.0,0.,12.0,0.,12.0,0.,12.0
1979-07-13 19:17:15.410 ,6,0,0.,12.0,0.,12.0,0.,12.0,0.,12.0
1979-07-13 19:17:27.410 ,6,0,0.,12.0,0.,12.0,0.,12.0,0.,12.0
1979-07-13 19:17:39.410 ,7,1,0.,12.0,0.,12.0,0.,12.0,0.,12.0
1979-07-13 19:17:51.410 ,7,1,0.,12.0,0.,12.0,0.,12.0,0.,12.0
1979-07-13 19:18:03.410 ,7,0,0.,12.0,0.,12.0,0.,12.0,0.,12.0
1979-07-13 19:18:15.410 ,7,0,0.,12.0,0.,12.0,0.,12.0,0.,12.0